GAOFEN-5 01

Last updated on Sun Oct 19 2025 00:02:30 GMT+0000 (Coordinated Universal Time)

1 43461U 18043A 25291.15005700 .00000815 00000+0 17875-3 0 9995 2 43461 98.4234 253.1763 0002990 99.8227 260.3310 14.60314125396363
UTC large
Height (km)
Speed (km/s)
/
Latitude / Longitude
Inclination (degrees)
Orbital Period (minutes)
Azimuth
Elevation
Range (km)
Doppler Factor

Next 0 passes for location: London (51.5072 / 0.1276)

Sorry there are no passes over London.